Time,TemperatureF,DewpointF,PressureIn,WindDirection,WindDirectionDegrees,WindSpeedMPH,WindSpeedGustMPH,Humidity,HourlyPrecipIn,Conditions,Clouds,dailyrainin,SoftwareType,DateUTC
2013-05-24 19:49:00,59.2,35.5,30.35,East,88,9.8,11.6,41,0.00,,CLR,0.00,VWS V14.00,2013-05-25 00:49:00,
2013-05-24 19:59:00,58.5,36.1,30.35,East,86,6.3,9.8,43,0.00,,CLR,0.00,VWS V14.00,2013-05-25 00:59:00,
2013-05-24 20:09:00,57.9,36.7,30.35,East,100,7.2,10.7,45,0.00,,CLR,0.00,VWS V14.00,2013-05-25 01:09:00,
2013-05-24 20:19:00,57.2,36.1,30.35,East,80,5.4,9.8,45,0.00,,CLR,0.00,VWS V14.00,2013-05-25 01:19:00,
2013-05-24 20:29:00,56.7,36.1,30.35,ESE,115,0.0,8.1,46,0.00,,CLR,0.00,VWS V14.00,2013-05-25 01:29:00,
2013-05-24 20:39:00,55.9,36.0,30.35,East,93,0.0,9.8,47,0.00,,CLR,0.00,VWS V14.00,2013-05-25 01:39:00,
2013-05-24 20:49:00,55.6,36.2,30.37,ESE,119,0.0,6.3,48,0.00,,CLR,0.00,VWS V14.00,2013-05-25 01:49:00,
2013-05-24 20:59:00,55.0,36.2,30.37,East,89,0.0,8.1,49,0.00,,CLR,0.00,VWS V14.00,2013-05-25 01:59:00,
2013-05-24 21:09:00,54.5,36.8,30.37,East,80,5.4,7.2,51,0.00,,CLR,0.00,VWS V14.00,2013-05-25 02:09:00,
2013-05-24 21:19:00,53.8,36.6,30.37,North,9,5.4,8.1,52,0.00,,CLR,0.00,VWS V14.00,2013-05-25 02:19:00,
2013-05-24 21:29:00,53.4,36.2,30.37,ENE,63,4.5,7.2,52,0.00,,CLR,0.00,VWS V14.00,2013-05-25 02:29:00,
2013-05-24 21:39:00,52.9,35.8,30.37,East,100,4.5,8.1,52,0.00,,CLR,0.00,VWS V14.00,2013-05-25 02:39:00,
2013-05-24 21:49:00,52.3,35.2,30.40,NE,52,6.3,9.8,52,0.00,,CLR,0.00,VWS V14.00,2013-05-25 02:49:00,
2013-05-24 21:59:00,52.2,35.1,30.40,NNE,12,4.5,9.8,52,0.00,,CLR,0.00,VWS V14.00,2013-05-25 02:59:00,
2013-05-24 22:09:00,51.4,34.4,30.40,ENE,67,4.5,7.2,52,0.00,,CLR,0.00,VWS V14.00,2013-05-25 03:09:00,
2013-05-24 22:19:00,51.1,34.1,30.40,NE,40,0.0,8.1,52,0.00,,CLR,0.00,VWS V14.00,2013-05-25 03:19:00,
2013-05-24 22:29:00,50.7,33.8,30.40,East,89,5.4,7.2,52,0.00,,CLR,0.00,VWS V14.00,2013-05-25 03:29:00,
2013-05-24 22:39:00,50.4,33.4,30.40,East,99,0.0,8.1,52,0.00,,CLR,0.00,VWS V14.00,2013-05-25 03:39:00,
2013-05-24 22:48:00,50.0,34.0,30.40,East,83,0.0,7.2,54,0.00,,CLR,0.00,VWS V14.00,2013-05-25 03:48:00,
2013-05-24 22:58:00,49.8,33.9,30.40,ESE,108,0.0,4.5,54,0.00,,CLR,0.00,VWS V14.00,2013-05-25 03:58:00,
2013-05-24 23:10:00,49.8,33.9,30.40,ESE,123,0.0,4.5,54,0.00,,CLR,0.00,VWS V14.00,2013-05-25 04:10:00,
2013-05-24 23:20:00,49.8,33.9,30.40,ESE,123,0.0,0.0,54,0.00,,CLR,0.00,VWS V14.00,2013-05-25 04:20:00,
2013-05-24 23:29:00,48.4,34.7,30.40,ESE,123,0.0,0.0,59,0.00,,CLR,0.00,VWS V14.00,2013-05-25 04:29:00,
2013-05-24 23:39:00,48.0,35.2,30.40,ESE,123,0.0,0.0,61,0.00,,CLR,0.00,VWS V14.00,2013-05-25 04:39:00,
2013-05-24 23:49:00,48.0,35.6,30.40,East,96,0.0,0.0,62,0.00,,CLR,0.00,VWS V14.00,2013-05-25 04:49:00,
2013-05-24 23:59:00,48.0,35.2,30.37,ENE,61,0.0,8.1,61,0.00,,CLR,0.00,VWS V14.00,2013-05-25 04:59:00,